Weather Roundup
Issued by NWS

Home | Current Version | Previous Version | Graphics & Text | Print | Product List | Glossary Off
Versions: 1 2 3 4 5 6 7 8 9 10 11 12 13 14 15 16 17 18 19 20 21 22 23 24 25 26 27 28 29 30 31 32 33 34 35 36 37 38 39 40 41 42 43 44 45 46 47 48 49 50

000
NZUS93 KARX 282359
HRRWXR

CURRENT HOURLY OBSERVATIONS ACROSS
MUCH OF THE UPPER MISSISSIPPI VALLEY
NATIONAL WEATHER SERVICE LA CROSSE WI
700 PM CDT SUN MAY 28 2017


...SOUTHEAST MINNESOTA...


CITY           SKY/WX    TMP DP  RH WIND       PRES   REMARKS
ROCHESTER      MOSUNNY   71  41  33 W22       29.75S
ROCHESTER/MAYO FAIR      71  41  34 W18G26    29.74R
WINONA         SUNNY     72  43  35 W12G20    29.72S
AUSTIN         MOSUNNY   70  39  32 W16G25    29.76S
ALBERT LEA     MOSUNNY   73  39  29 NW10G18   29.76S
DODGE CENTER   MOSUNNY   70  37  30 W13G24    29.75S
PRESTON        PTSUNNY   69  41  35 W16G24    29.76S
OWATONNA       PTSUNNY   70  41  35 NW14      29.75S
FARIBAULT      SUNNY     70  45  40 W8        29.75S
$$

...ELSEWHERE IN MINNESOTA...


CITY           SKY/WX    TMP DP  RH WIND       PRES   REMARKS
MINNEAPOLIS    PTSUNNY   67  42  40 NW20G29   29.73S
INTNL FALLS    LGT RAIN  56  49  77 N8        29.62S
DULUTH         CLOUDY    60  48  64 NW12      29.65S
RED WING       SUNNY     70  37  30 NW10G22   29.72S
REDWOOD FALLS  CLOUDY    68  39  34 NW24G36   29.79R
MANKATO        PTSUNNY   72  41  32 W21G30    29.76R
WORTHINGTON    PTSUNNY   71  39  31 NW20G26   29.83S
FAIRMONT       MOSUNNY   72  38  29 NW21G28   29.79S
$$

...SOUTHWEST WISCONSIN...


CITY           SKY/WX    TMP DP  RH WIND       PRES   REMARKS
LA CROSSE      SUNNY     73  45  36 NW10      29.71S
PRAIRIE DU CHI MOSUNNY   74  38  26 W12G23    29.73S
BOSCOBEL       MOSUNNY   74  44  34 W8        29.73F
LONE ROCK      NOT AVBL
PLATTEVILLE    SUNNY     73  45  36 W13G18    29.75S
FORT MC COY    SUNNY     71  42  35 W14G23    29.72S
MAUSTON-NEW LI PTCLDY    71  45  39 W15G28    29.70F
VIROQUA        FAIR      70  42  36 SW14      29.75S
WIS DELLS      SUNNY     70  43  38 W13G21    29.72S
$$

...ELSEWHERE IN WISCONSIN...


CITY           SKY/WX    TMP DP  RH WIND       PRES   REMARKS
MILWAUKEE      MOSUNNY   74  55  51 SW12G22   29.69S
MADISON        MOSUNNY   72  45  37 W12G21    29.72R
GREEN BAY      SUNNY     70  50  49 W20G31    29.64R
EAU CLAIRE     LGT RAIN  57  52  82 N12       29.73R
BLACK RVR FLS  FAIR      71  40  32 W12G22    29.70S
MEDFORD        CLOUDY    57  50  78 W10G16    29.70S
WAUSAU         HVY RAIN  59  51  75 NW22G39   29.69R
WIS RAPIDS     MOSUNNY   69  46  43 NW7G18    29.70S
MARSHFIELD     CLOUDY    65  45  48 NW14G23   29.69R
RICE LAKE      CLOUDY    57  51  79 SW6       29.73F
$$

...NORTHEAST IOWA...


CITY           SKY/WX    TMP DP  RH WIND       PRES   REMARKS
WATERLOO       SUNNY     75  39  27 W16G25    29.75F
DUBUQUE        PTSUNNY   70  47  43 NW8       29.76S
DECORAH        SUNNY     72  41  33 NW7G24    29.74F
MASON CITY     MOSUNNY   72  38  29 W22G29    29.79F
CHARLES CITY   MOSUNNY   73  37  27 W17G25    29.77S
OELWEIN        SUNNY     75  43  31 NW16G23   29.77S
$$

...ELSEWHERE IN IOWA...


CITY           SKY/WX    TMP DP  RH WIND       PRES   REMARKS
DES MOINES     MOSUNNY   78  39  24 NW20G29   29.81R
IOWA CITY      MOSUNNY   75  52  44 W7        29.79F
FORT DODGE     SUNNY     72  39  30 W13G22    29.83S
MARSHALLTOWN   SUNNY     74  44  34 NW15G24   29.78S
CEDAR RAPIDS   MOSUNNY   73  49  42 W14G29    29.76F
$$

...NORTHERN ILLINOIS...


CITY           SKY/WX    TMP DP  RH WIND       PRES   REMARKS
CHICAGO-OHARE  PTSUNNY   74  51  44 W10G21    29.73S
CHICAGO-MIDWAY PTSUNNY   75  52  44 W9        29.74R
MOLINE         SUNNY     76  48  37 W12       29.78S
ROCKFORD       MOSUNNY   74  48  39 W14       29.76R
PEORIA         MOSUNNY   77  51  40 NW12G20   29.80R
$$

NOTE: "FAIR" INDICATES FEW OR NO CLOUDS BELOW 12,000 FEET WITH NO
SIGNIFICANT WEATHER AND/OR OBSTRUCTIONS TO VISIBILITY. WIND
SPEEDS ARE IN MILES-PER-HOUR.




USA.gov is the U.S. government's official web portal to all federal, state and local government web resources and services.